Regional Weather Roundup
Issued by NWS State College, PA

Home | Current Version | Previous Version | Graphics & Text | Print | Product List | Glossary On
Versions: 1 2 3 4 5 6 7 8 9 10 11 12 13 14 15 16 17 18 19 20 21 22 23 24 25 26 27 28 29 30 31 32 33 34 35 36 37 38 39 40 41 42 43 44 45 46 47 48 49 50
000
ASUS41 KCTP 201010
RWRCTP

REGIONAL WEATHER ROUNDUP
NATIONAL WEATHER SERVICE STATE COLLEGE PA
600 AM EDT WED AUG 20 2014

Note: "fair" indicates few or no clouds below 12,000 feet with no
significant weather and/or obstructions to visibility.

* = STATION THAT DOES NOT REPORT PRECIPITATION /E.G. RAIN...SNOW...ETC/
    THUNDER OR FOG.

PAZ002>004-007>009-013>016-020>023-029>032-201100-
WESTERN PENNSYLVANIA

CITY           SKY/WX    TMP DP  RH WIND       PRES   REMARKS
ERIE           LGT RAIN  66  62  87 S8        29.85F
MEADVILLE      LGT RAIN  64  61  90 VRB6      29.88R
FRANKLIN*      CLOUDY    63  59  88 S8        29.93S
NEW CASTLE     NOT AVBL
BEAVER COUNTY  NOT AVBL
BUTLER*        CLOUDY    64  61  88 SE5       29.97R
PITTSBURGH INT TSTM      65  65 100 E6        29.94R
PITTSBURGH     CLOUDY    65  63  93 NW3       29.95R FOG
INDIANA*       CLOUDY    66  64  94 W5        29.98R
LATROBE        LGT RAIN  66  66 100 CALM      29.94S
WASHINGTON CO* CLOUDY    64  63  94 NW6       29.96R
$$

PAZ004>006-010>012-017>019-024>028-033>037-041-042-045-046-049>053-201100-
CENTRAL PENNSYLVANIA

CITY           SKY/WX    TMP DP  RH WIND       PRES   REMARKS
BRADFORD       LGT RAIN  63  61  93 E3        29.92S
DUBOIS         CLOUDY    64  62  93 SE3       29.93R
CLEARFIELD     FOG       62  61  96 N5        29.94S VSB 1/4
JOHNSTOWN      MOCLDY    64  62  93 E5        29.97R FOG
ALTOONA        CLOUDY    67  66  97 CALM      29.95R FOG
STATE COLLEGE  CLOUDY    64  63  94 CALM      29.94R FOG
WILLIAMSPORT   CLOUDY    65  61  87 CALM      29.92R
SELINSGROVE    FOG       64  63  96 CALM      29.94R VSB 1/4
FT INDIANTOWN  CLOUDY    65  65 100 E1        29.95R
CAPITAL CITY   CLOUDY    69  64  84 SE3       29.94R
HARRISBURG     CLOUDY    70  64  81 E6        29.93R
YORK           CLOUDY    66  63  90 E3        29.94R
$$

PAZ038>040-043-044-047-048-054-055-060>062-067>071-201100-
EASTERN PENNSYLVANIA

CITY           SKY/WX    TMP DP  RH WIND       PRES   REMARKS
SCRANTON       PTCLDY    65  61  87 SE3       29.95R
MOUNT POCONO   PTCLDY    58  57  97 CALM      30.00R FOG
ALLENTOWN      PTCLDY    66  62  87 CALM      29.95R
QUAKERTOWN*    SUNNY     66  64  94 CALM      29.97R
READING        CLOUDY    69  64  84 CALM      29.94R
LANCASTER      CLOUDY    66  62  87 E3        29.95R
COATESVILLE    PTSUNNY   66  66 100 SE3       29.97S
POTTSTOWN      CLOUDY    69  63  81 CALM      29.97R
BLUE BELL      MOCLDY    68  64  88 CALM      29.95R
DOYLESTOWN     MOCLDY    65  63  93 CALM      29.96R
WILLOW GROVE   NOT AVBL
NORTH PHILA    CLOUDY    71  63  75 E3        29.97R
PHILADELPHIA   MOCLDY    71  64  78 SE3       29.95S
$$


USA.gov is the U.S. government's official web portal to all federal, state and local government web resources and services.